Flag for France Weather past 2 weeks in Limoges, France

Now
63 °F

Partly sunny.


Feels Like: 63 °F
Forecast: 44 / 70 °F
Wind: 8 mph from West

Location: Limoges Airport

Current Time: May 29, 2015 at 3:12:04 PM

Latest Report: May 29, 2015 at 2:30 PM


Visibility: N/A

Pressure: 30.01 "Hg

Humidity: 56%

Dew point: 46 °F

Location of LimogesLocation

Historic Weather in Limoges — Graph

°F

Limoges temperature yesterday

Maximum temperature yesterday: 70 °F (at 3:00 PM)
Minimum temperature yesterday: 48 °F (at 6:30 AM)
Average temperature yesterday: 61 °F

Past Weeks' High & Low Weather Summary

 TemperatureHumidityPressure
High70 °F (May 28, 3:00 PM)100% (May 15, 4:00 AM)30.42 "Hg (May 15, 4:00 AM)
Low41 °F (May 20, 3:00 AM)38% (May 28, 4:00 PM)29.89 "Hg (May 18, 5:30 PM)
Average55 °F71%30.15 "Hg
* Reported May 14 2:00 PM — May 29 2:00 PM, Limoges, Weather by CustomWeather, © 2015

Note: Actual official high and low records may vary slightly from our data, if they occured in-between our weather recording intervals... More about our weather records

Advertising

Limoges weather history for previous 24 hours

 ConditionsComfort  
Time TempWeatherWind HumidityBarometerVisibility
2:00 PM
Fri, May 29
61 °FBroken clouds.9 mph63%30.04 "HgN/A
1:30 PM63 °FPartly sunny.8 mph56%30.04 "HgN/A
1:00 PM61 °FMore clouds than sun.9 mph63%30.04 "HgN/A
12:30 PM61 °FPartly sunny.9 mph63%30.04 "HgN/A
12:00 PM59 °FPartly sunny.6 mph72%30.04 "HgN/A
11:30 AM57 °FBroken clouds.7 mph77%30.04 "HgN/A
11:00 AM55 °FPartly sunny.6 mph88%30.04 "HgN/A
10:30 AM54 °FMostly cloudy.6 mph100%30.04 "HgN/A
10:00 AM52 °FFog.6 mph100%30.04 "HgN/A
9:30 AM52 °FFog.6 mph100%30.04 "Hg0 mi
9:00 AM50 °FFog.5 mph100%30.01 "Hg0 mi
8:30 AM50 °FFog.3 mph100%30.01 "Hg0 mi
8:00 AM48 °FFog.5 mph100%30.01 "Hg0 mi
7:30 AM48 °FFog.7 mph100%30.01 "Hg0 mi
7:00 AM48 °FFog.9 mph100%29.98 "Hg0 mi
6:30 AM50 °FFog.9 mph100%29.98 "Hg0 mi
6:00 AM50 °FPassing clouds.6 mph94%29.98 "Hg4 mi
5:30 AM50 °FClear.6 mph94%29.98 "Hg10 mi
5:00 AM50 °FClear.7 mph94%29.98 "Hg10 mi
4:30 AM50 °FClear.6 mph94%30.01 "Hg10 mi
4:00 AM50 °FClear.5 mph94%30.01 "Hg10 mi
3:30 AM50 °FClear.2 mph88%30.01 "Hg10 mi
3:00 AM52 °FClear.8 mph82%30.01 "Hg10 mi
2:30 AM52 °FClear.6 mph82%30.04 "Hg10 mi
2:00 AM54 °FClear.8 mph82%30.04 "Hg10 mi
1:30 AM54 °FClear.8 mph82%30.04 "Hg10 mi
1:00 AM55 °FClear.7 mph77%30.04 "Hg10 mi
12:00 AM57 °FClear.6 mph67%30.07 "Hg10 mi
11:30 PM
Thu, May 28
59 °FClear.7 mph63%30.07 "Hg10 mi
11:00 PM59 °FClear.5 mph59%30.07 "Hg10 mi
10:30 PM61 °FSunny.5 mph59%30.07 "Hg10 mi
10:00 PM61 °FSunny.5 mph59%30.04 "Hg10 mi
9:30 PM63 °FSunny.3 mph59%30.04 "Hg10 mi
9:00 PM66 °FSunny.5 mph56%30.04 "Hg10 mi
8:30 PM68 °FPassing clouds.5 mph53%30.04 "HgN/A
8:00 PM68 °FPassing clouds.5 mph49%30.04 "HgN/A
7:30 PM70 °FPassing clouds.9 mph46%30.04 "HgN/A
7:00 PM70 °FPassing clouds.6 mph43%30.07 "HgN/A
6:30 PM70 °FPassing clouds.8 mph43%30.07 "HgN/A
6:00 PM70 °FPassing clouds.8 mph40%30.07 "HgN/A
5:30 PM70 °FPassing clouds.12 mph38%30.07 "HgN/A
5:00 PM70 °FPassing clouds.10 mph38%30.07 "HgN/A
4:30 PM70 °FPassing clouds.9 mph40%30.09 "HgN/A
4:00 PM70 °FPassing clouds.7 mph38%30.09 "HgN/A
3:30 PM70 °FPassing clouds.9 mph43%30.09 "HgN/A
3:00 PM70 °FPassing clouds.8 mph50%30.09 "HgN/A
Weather by CustomWeather, © 2015

See weather overviewHow to use our weather pages